Location: Unspecified
(52.1384°N, 8.6525°W)
Time: 10:40:01
(UTC+00:00)

XW-2F - Pass Details

Date: 24 January 2021
Orbit: 500 x 519 km, 97.5° (Epoch: 24 February)

Event Time Altitude Azimuth Distance (km) Brightness Sun altitude
Rises 07:05:09 0° 12° (NNE) 2,661 ? -12.2°
Reaches altitude 10° 07:07:16 10° 10° (N) 1,769 ? -11.9°
Maximum altitude 07:11:04 74° 287° (WNW) 550 ? -11.4°
Drops below altitude 10° 07:14:51 10° 202° (SSW) 1,753 ? -10.8°
Sets 07:16:56 0° 200° (SSW) 2,635 ? -10.5°
